[[{"header":{"parameterUnit":"m.s-1","parameterCategory":1,"la1":30.2991,"la2":30.254,"lo1":-89.0895,"lo2":-89.0444,"dy":0.0017,"dx":0.0017,"nx":28,"ny":28,"refTime":"2024-06-28T03:00:00:Z","depth":0,"parameterNumber":2,"parameterNumberName":"U-component_of_WINDS"},"data":[0,0,0,0,0,0,0,0,0,0,0,0,0,0,0,0,0,0,0,0,0,0,0,0,0,0,0,0,0,0,0,0,0,0,0,0,0,0,0,0,0,0,0,0,0,0,0,0,0,0,0,0,0,0,0,0,0,0,4.2427,4.2428,0,4.2512,4.2513,4.2514,4.2409,4.2405,4.2401,4.2397,4.2487,4.2492,4.2498,0,0,0,0,0,0,0,0,0,0,0,0,0,4.2172,4.2178,4.2427,4.2428,4.2429,4.2512,4.2513,4.2514,4.241,4.2405,4.24,4.2396,4.2485,4.2492,4.2499,0,0,0,0,0,0,0,0,0,0,0,0,0,4.2273,4.2179,4.2427,4.2387,4.2384,4.2512,4.2513,4.2514,4.2411,4.2405,4.2399,4.2393,4.2482,4.2491,4.25,4.2671,0,0,4.2527,4.2531,0,0,0,0,0,0,0,0,4.2267,4.2282,4.2392,4.239,4.2387,4.2444,4.2456,4.2567,4.2412,4.2401,4.2397,4.2391,4.2477,4.2486,4.2515,4.2675,4.2679,4.2528,4.2533,4.2537,4.254,0,0,0,0,0,0,0,4.226,4.2278,4.2461,4.2393,4.2391,4.2364,4.2372,4.2476,4.2471,4.2401,4.2394,4.2405,4.2475,4.2507,4.2516,4.2681,4.2528,4.2536,4.2541,4.2545,4.2979,4.2985,0,0,0,0,0,0,4.2258,4.2273,4.2458,4.2463,4.2311,4.2373,4.2382,4.2431,4.2469,4.2469,4.241,4.24,4.2494,4.2506,4.2519,4.2717,4.2537,4.2546,4.2551,4.2973,4.2981,4.2987,0,0,0,0,0,0,4.2253,4.2276,4.2454,4.2366,4.2387,4.2384,4.244,4.2436,4.2468,4.2476,4.2474,4.2444,4.249,4.2506,4.2632,4.2719,4.255,4.2558,4.2966,4.2975,4.2984,4.3118,0,0,0,0,0,0,4.2246,4.2274,4.234,4.2368,4.2392,4.2568,4.2446,4.2442,4.2483,4.2471,4.2507,4.2507,4.2487,4.262,4.2641,4.2728,4.2565,4.2958,4.297,4.2981,4.3106,4.3131,4.3152,0,0,0,0,0,4.2237,4.2377,4.2344,4.2367,4.2474,4.2573,4.2586,4.2559,4.2491,4.2556,4.256,4.2506,4.2707,4.2634,4.2657,4.2748,4.2952,4.2967,4.298,4.3096,4.3126,4.3152,0,0,0,0,0,0,4.2361,4.238,4.2344,4.2497,4.2534,4.2555,4.2637,4.2593,4.2652,4.2638,4.2602,4.2611,4.2744,4.2759,4.2678,4.2913,4.2818,4.2837,4.2898,4.2927,4.2949,4.2942,4.2572,0,0,0,0,0,4.2406,4.2484,4.2497,4.263,4.265,4.2641,4.2683,4.2658,4.2695,4.2711,4.2725,4.2763,4.2834,4.2882,4.2948,4.3108,4.3112,4.3182,4.3205,4.3224,4.324,4.332,4.335,4.3033,4.3033,4.3032,0,0,4.25,4.2519,4.2572,4.2655,4.2681,4.2761,4.2655,4.2746,4.2805,4.2725,4.2843,4.2855,4.2895,4.3037,4.3101,4.3054,4.3329,4.3242,4.3257,4.3263,4.3338,4.3368,4.3394,4.3042,4.3041,4.3039,0,0,4.271,4.2735,4.2846,4.2873,4.2912,4.2904,4.2931,4.2958,4.2962,4.308,4.302,4.3089,4.3214,4.3243,4.3275,4.3492,4.3442,4.3515,4.3634,4.3713,4.3738,4.376,4.3832,4.3859,4.3531,4.3532,4.3532,0,4.2822,4.2941,4.2909,4.3002,4.3039,4.2969,4.3079,4.3107,4.3167,4.3193,4.314,4.329,4.3313,4.3458,4.3511,4.354,4.3567,4.3509,4.3737,4.3758,4.3778,4.3847,4.3875,4.354,4.3539,4.3538,4.3537,0,4.3073,4.3156,4.3241,4.3297,4.3344,4.3446,4.3428,4.3479,4.3449,4.3446,4.3565,4.3589,4.3656,4.369,4.3664,4.383,4.3799,4.3742,4.3646,4.3817,4.3881,4.3907,4.3551,4.3548,4.3546,4.3544,0,0,4.3365,4.3399,4.343,4.3452,4.3489,4.3552,4.365,4.3713,4.3755,4.3799,4.3877,4.3982,4.3927,4.3963,4.3939,4.4009,4.4173,4.3942,4.3943,4.398,4.4352,4.4391,4.4423,4.4141,4.4146,4.415,4.4347,0,4.3572,4.3738,4.371,4.3871,4.3945,4.3878,4.3962,4.3992,4.3992,4.4054,4.4053,4.4125,4.4051,4.4071,4.4137,4.4139,4.4246,4.4125,4.4211,4.4214,4.4199,4.4457,4.45,4.4685,4.4372,4.4376,4.4379,0,4.3836,4.3884,4.4052,4.4072,4.4102,4.4178,4.4231,4.4293,4.4325,4.4319,4.4356,4.4319,4.4413,4.4317,4.4445,4.4362,4.4396,4.4402,4.4408,4.4412,4.4305,4.4464,4.4744,4.477,4.4419,4.4416,4.4413,0,4.4025,4.4134,4.4246,4.4268,4.4296,4.435,4.4364,4.439,4.4429,4.4476,4.4499,4.4559,4.459,4.4635,4.4613,4.4546,4.4743,4.4646,4.4738,4.4739,4.478,4.4777,4.5065,4.4809,4.4809,4.4808,4.4808,0,4.4256,4.4361,4.4331,4.44,4.4513,4.448,4.4593,4.4599,4.4622,4.469,4.4637,4.4701,4.467,4.4732,4.4716,4.4821,4.4837,4.4833,4.4826,4.4835,4.4835,4.4854,4.4839,4.4816,4.4814,4.4813,4.4811,0,4.4486,4.4471,4.4589,4.4604,4.461,4.4692,4.4704,4.4768,4.4762,4.4848,4.4866,4.4857,4.4926,4.4909,4.4987,4.4975,4.5106,4.5086,4.5095,4.5088,4.5179,4.5169,4.5486,4.5524,4.5247,4.525,4.5252,0,4.4633,4.4711,4.4733,4.4773,4.4791,4.4858,4.4895,4.4865,4.4906,4.4946,4.5004,4.5068,4.5118,4.5232,4.5232,4.5289,4.5267,4.5374,4.5275,4.528,4.5263,4.5257,4.5262,4.5393,4.5396,4.5398,4.5401,0,4.4894,4.4881,4.4937,4.499,4.5036,4.5076,4.5112,4.5148,4.512,4.5169,4.5238,4.5276,4.5352,4.5415,4.5467,4.548,4.5435,4.5432,4.5455,4.5463,4.5463,4.5459,4.5143,4.5424,4.5422,4.542,4.5419,4.5418,4.5083,4.5147,4.5171,4.5234,4.5256,4.529,4.5348,4.5348,4.5405,4.5463,4.5442,4.552,4.5546,4.561,4.563,4.5689,4.5649,4.5684,4.5692,4.57,4.5709,4.5456,4.57,4.5699,4.5698,4.5698,4.5697,0,4.5336,4.5347,4.5406,4.5455,4.5504,4.5456,4.5492,4.5535,4.5604,4.5632,4.5681,4.5758,4.5818,4.5821,4.5877,4.5923,4.5904,4.5939,4.5933,4.5936,4.5745,4.5717,4.5953,4.5953,4.5953,4.5953,4.5953,4.5953,4.5474,4.5577,4.5567,4.568,4.569,4.5765,4.5788,4.5818,4.5839,4.5927,4.5975,4.5977,4.5994,4.6049,4.6101,4.61,4.6121,4.6164,4.6155,4.5976,4.595,4.5926,4.5899,4.617,4.617,4.634,4.6341,4.6343]},{"header":{"parameterUnit":"m.s-1","parameterCategory":1,"la1":30.2991,"la2":30.254,"lo1":-89.0895,"lo2":-89.0444,"dy":0.0017,"dx":0.0017,"nx":28,"ny":28,"refTime":"2024-06-28T03:00:00:Z","depth":0,"parameterNumber":3,"parameterNumberName":"V-component_of_WINDS"},"data":[0,0,0,0,0,0,0,0,0,0,0,0,0,0,0,0,0,0,0,0,0,0,0,0,0,0,0,0,0,0,0,0,0,0,0,0,0,0,0,0,0,0,0,0,0,0,0,0,0,0,0,0,0,0,0,0,0,0,3.5544,3.5544,0,3.5587,3.5588,3.5588,3.5557,3.5555,3.5554,3.5553,3.5594,3.5596,3.5599,0,0,0,0,0,0,0,0,0,0,0,0,0,3.543,3.5432,3.5544,3.5544,3.5545,3.5587,3.5588,3.5588,3.5557,3.5555,3.5554,3.5552,3.5593,3.5596,3.5599,0,0,0,0,0,0,0,0,0,0,0,0,0,3.5477,3.5433,3.5544,3.5535,3.5534,3.5587,3.5588,3.5588,3.5557,3.5555,3.5553,3.5551,3.5592,3.5596,3.5599,3.5663,0,0,3.561,3.5612,0,0,0,0,0,0,0,0,3.5474,3.5481,3.5535,3.5535,3.5535,3.5565,3.5562,3.5613,3.5558,3.5549,3.5553,3.555,3.5586,3.559,3.5602,3.5665,3.5666,3.5611,3.5613,3.5614,3.5615,0,0,0,0,0,0,0,3.5471,3.5479,3.5561,3.5536,3.5536,3.5527,3.5531,3.5572,3.5578,3.5549,3.5547,3.5553,3.5585,3.5599,3.5603,3.5667,3.5611,3.5614,3.5616,3.5617,3.578,3.5782,0,0,0,0,0,0,3.5469,3.5476,3.5559,3.5562,3.5499,3.553,3.5535,3.5557,3.5578,3.5579,3.5554,3.5551,3.5594,3.5599,3.5604,3.5677,3.5614,3.5618,3.562,3.5778,3.578,3.5783,0,0,0,0,0,0,3.5467,3.5477,3.5558,3.5519,3.5528,3.5535,3.5559,3.5559,3.5573,3.5582,3.5582,3.5568,3.5592,3.5599,3.5648,3.5679,3.5619,3.5623,3.5775,3.5779,3.5782,3.5826,0,0,0,0,0,0,3.5463,3.5476,3.5502,3.552,3.5531,3.5602,3.5561,3.5561,3.5579,3.5575,3.5594,3.5595,3.5591,3.5643,3.5651,3.5682,3.5625,3.5772,3.5777,3.5781,3.5822,3.583,3.5837,0,0,0,0,0,3.546,3.5512,3.5503,3.5513,3.5563,3.5604,3.561,3.5606,3.5582,3.5606,3.5612,3.5595,3.5674,3.5648,3.5658,3.569,3.577,3.5775,3.578,3.5818,3.5828,3.5837,0,0,0,0,0,0,3.5497,3.5515,3.5504,3.5565,3.5583,3.5599,3.563,3.5617,3.5642,3.5637,3.5629,3.5634,3.5684,3.5692,3.5663,3.5751,3.5718,3.5725,3.5744,3.5754,3.5761,3.5758,3.5628,0,0,0,0,0,3.5513,3.5546,3.5559,3.5611,3.5621,3.5624,3.5642,3.5636,3.5655,3.5662,3.5671,3.5688,3.5717,3.5736,3.5763,3.5823,3.5825,3.585,3.5857,3.5864,3.587,3.5899,3.5909,3.5799,3.5799,3.5799,0,0,3.5545,3.5559,3.558,3.5619,3.5633,3.5665,3.5631,3.5668,3.5691,3.5667,3.5713,3.572,3.5739,3.5793,3.5817,3.5801,3.5901,3.587,3.5875,3.5877,3.5905,3.5915,3.5925,3.5802,3.5802,3.5801,0,0,3.562,3.5635,3.5678,3.5692,3.5713,3.5715,3.5725,3.5742,3.5746,3.5792,3.5774,3.5801,3.5851,3.5865,3.5878,3.5955,3.5939,3.5964,3.6005,3.6034,3.6043,3.605,3.6076,3.6085,3.597,3.597,3.597,0,3.5657,3.5707,3.5702,3.574,3.5756,3.5736,3.5779,3.5792,3.5821,3.5832,3.5814,3.5874,3.5886,3.5941,3.596,3.5972,3.5982,3.5962,3.6042,3.605,3.6057,3.6081,3.609,3.5973,3.5973,3.5972,3.5972,0,3.575,3.5785,3.5818,3.5845,3.5866,3.5906,3.5905,3.5925,3.5918,3.592,3.5966,3.5979,3.6006,3.6019,3.6013,3.6073,3.6062,3.6043,3.601,3.607,3.6092,3.6102,3.5977,3.5976,3.5975,3.5975,0,0,3.5851,3.5874,3.5886,3.5897,3.5918,3.5944,3.5982,3.6009,3.6026,3.6046,3.6076,3.6118,3.61,3.6115,3.6109,3.6135,3.6192,3.6112,3.6112,3.6125,3.6256,3.6269,3.6279,3.6182,3.6184,3.6185,3.6253,0,3.5926,3.5993,3.5988,3.605,3.608,3.6061,3.6093,3.6108,3.6111,3.6136,3.6139,3.6168,3.6143,3.6152,3.6176,3.618,3.6218,3.6175,3.6208,3.6209,3.6202,3.6292,3.6306,3.637,3.6262,3.6264,3.6265,0,3.6022,3.6044,3.6109,3.6123,3.6135,3.6165,3.6188,3.6213,3.6229,3.6229,3.6245,3.6234,3.627,3.6237,3.6285,3.6256,3.6269,3.6273,3.6275,3.6276,3.6239,3.6293,3.639,3.6399,3.6279,3.6278,3.6277,0,3.6085,3.6132,3.6177,3.6187,3.6205,3.6225,3.6233,3.6247,3.6263,3.6283,3.6293,3.6317,3.633,3.6348,3.6343,3.632,3.6392,3.6359,3.6391,3.6391,3.6406,3.6405,3.6504,3.6417,3.6417,3.6417,3.6417,0,3.6168,3.6208,3.6205,3.6232,3.6276,3.6269,3.6312,3.6317,3.6329,3.6355,3.634,3.6365,3.6358,3.6382,3.6379,3.6417,3.6424,3.6423,3.6422,3.6424,3.6424,3.6431,3.6426,3.642,3.6419,3.6419,3.6418,0,3.6246,3.6247,3.6293,3.6305,3.6309,3.634,3.635,3.6374,3.6375,3.6409,3.6416,3.6418,3.6445,3.6442,3.6473,3.647,3.6518,3.6512,3.6513,3.6511,3.6542,3.6538,3.6648,3.6661,3.6568,3.6569,3.657,0,3.6298,3.6328,3.6343,3.636,3.6369,3.6397,3.6413,3.6406,3.6423,3.6442,3.6464,3.649,3.651,3.6554,3.6557,3.658,3.6573,3.661,3.6576,3.6576,3.6571,3.6568,3.657,3.6616,3.6617,3.6618,3.6619,0,3.6389,3.6387,3.6411,3.6435,3.6454,3.6472,3.6488,3.6503,3.6498,3.6517,3.6545,3.6561,3.6591,3.6616,3.6637,3.6644,3.663,3.6629,3.6637,3.6639,3.6637,3.6636,3.6529,3.6626,3.6626,3.6625,3.6625,3.6624,3.6455,3.6479,3.6493,3.6519,3.6531,3.6546,3.6569,3.6572,3.6595,3.662,3.6615,3.6645,3.6658,3.6684,3.6693,3.6716,3.6702,3.6715,3.6717,3.672,3.6723,3.6635,3.672,3.672,3.6719,3.6719,3.6719,0,3.6543,3.655,3.6574,3.6597,3.6617,3.6603,3.662,3.6637,3.6664,3.6677,3.6697,3.6728,3.6751,3.6756,3.6778,3.6795,3.6789,3.6801,3.6798,3.68,3.6735,3.6724,3.6805,3.6805,3.6805,3.6805,3.6805,3.6805,3.6591,3.6631,3.663,3.6675,3.6682,3.6712,3.6722,3.6735,3.6745,3.678,3.6799,3.6802,3.6811,3.6833,3.6854,3.6854,3.6862,3.6876,3.6874,3.6813,3.6805,3.6796,3.6786,3.6879,3.6879,3.6937,3.6937,3.6938]}]]